Voltar ao catálogo

DELTA 1 DEB

AtivoSSO
NORAD 26835·DEBRIS·🇺🇸 United States

Lançado Jun 12, 1975 de Vandenberg Space Force Base

Loading…

Próximas Passagens (próximas 24 horas)

TLE

AtualizadoSource: Space-Track

Época: Sep 14, 2026, 13:31 UTC

1 26835U 75052KP  26257.56355576  .00001122  00000-0  11065-2 0  9998
2 26835  99.6923 111.5878 0039447 273.8699 104.3960 13.80698745732899

Acompanhe DELTA 1 DEB em tempo real com AllMySat

Download on the App Store